Location: Okie-Tex Star Party
(36.8978°N, 102.9520°W)
Time: 08:05:21
(UTC-05:00)

Oscar 16 - Visible Passes

Search period start: 26 April 2015 00:00
Search period end: 06 May 2015 00:00
Orbit: 776 x 790 km, 98.5° (Epoch: 25 April)

Date Brightness Start Highest point End Pass type
(mag) Time Alt. Az. Time Alt. Az. Time Alt. Az.
26 Apr 12.6 02:50:42 10° NNE 02:53:02 24° NE 02:53:02 24° NE visible
26 Apr 12.2 04:30:29 10° NNW 04:33:37 23° NW 04:33:37 23° NW visible
27 Apr 13.2 02:20:15 10° NE 02:21:14 13° ENE 02:21:14 13° ENE visible
27 Apr 11.7 03:58:21 10° N 04:01:49 37° NNW 04:01:49 37° NNW visible
28 Apr 11.8 03:26:41 10° NNE 03:30:01 41° NNE 03:30:01 41° NNE visible
28 Apr 12.8 05:09:04 10° NW 05:10:36 11° WNW 05:10:36 11° WNW visible
29 Apr 12.4 02:55:27 10° NNE 02:58:13 28° NE 02:58:13 28° NE visible
29 Apr 12.2 04:35:28 10° NNW 04:38:48 22° NW 04:38:48 22° NW visible
30 Apr 13.0 02:24:52 10° NE 02:26:24 16° ENE 02:26:24 16° ENE visible
30 Apr 11.6 04:03:16 10° N 04:06:59 37° NW 04:06:59 37° NW visible
01 May 11.5 03:31:31 10° NNE 03:35:11 47° N 03:35:11 47° N visible
02 May 12.1 03:00:13 10° NNE 03:03:22 33° NE 03:03:22 33° NE visible
02 May 12.3 04:40:30 10° NNW 04:43:57 20° WNW 04:43:57 20° WNW visible
03 May 12.9 02:29:29 10° NE 02:31:33 18° ENE 02:31:33 18° ENE visible
03 May 11.6 04:08:10 10° N 04:12:08 36° NW 04:12:08 36° NW visible
04 May 11.3 03:36:22 10° N 03:40:19 52° N 03:40:19 52° N visible
05 May 11.9 03:04:59 10° NNE 03:08:30 38° NE 03:08:30 38° NE visible
05 May 12.4 04:45:32 10° NNW 04:49:03 18° WNW 04:49:05 18° WNW visible
